Latest Weather Observations for Kuitpo

IDS60901

Issued at 7:11 pm CDT Thursday 19 January 2017 (issued every 10 minutes, with the page automatically refreshed every 10 minutes)

About weather observations | Map of Adelaide area stations | Latest observations for Adelaide area | Other Formats
Station Details ID: 023887 Name: KUITPO FOREST RESERVE Lat: -35.17 Lon: 138.68 Height: 365.0 m
Data from the previous 72 hours. | See also: Recent months at Kuitpo
Date/Time
CDT
Temp
°C
App
Temp
°C
Dew
Point
°C
Rel
Hum
%
Delta-T
°C
Wind Press
QNH
hPa
Press
MSL
hPa
Rain since
9am
mm
Dir  Spd
km/h
Gust
km/h
Spd
kts
Gust
kts
19/07:00pm 30.8 29.9 14.8 37 10.0 NE 13 26 7 14 998.5 997.1 0.0
19/06:30pm 31.9 29.8 13.6 32 11.3 ENE 17 22 9 12 998.6 997.2 0.0
19/06:00pm 32.7 32.5 15.7 36 10.8 NE 11 17 6 9 999.2 997.7 0.0
19/05:30pm 33.3 33.1 15.8 35 11.2 NE 11 20 6 11 999.6 998.1 0.0
19/05:00pm 32.5 32.5 15.1 35 10.9 NNE 9 17 5 9 1000.6 999.1 0.0
19/04:30pm 33.0 32.5 15.0 33 11.3 NE 11 17 6 9 1001.5 1000.1 0.0
19/04:00pm 32.5 32.4 15.9 36 10.5 NE 11 15 6 8 1002.5 1001.0 0.0
19/03:30pm 32.4 31.8 14.5 33 11.2 NE 11 20 6 11 1003.4 1002.0 0.0
19/03:00pm 30.2 28.3 13.0 34 10.4 ENE 15 20 8 11 1003.9 1002.5 0.0
19/02:30pm 28.6 26.2 12.5 37 9.6 NE 17 24 9 13 1004.9 1003.4 0.0
19/02:00pm 27.2 24.3 12.4 40 8.7 ENE 19 26 10 14 1005.5 1004.1 0.0
19/01:30pm 26.8 24.6 13.2 43 8.1 NE 17 24 9 13 1006.2 1004.8 0.0
19/01:00pm 25.8 22.7 11.6 41 8.2 ENE 19 28 10 15 1006.9 1005.5 0.0
19/12:30pm 23.8 20.8 12.1 48 6.8 E 19 24 10 13 1007.6 1006.1 0.0
19/12:00pm 23.3 20.7 12.0 49 6.5 E 17 24 9 13 1007.9 1006.5 0.0
19/11:30am 23.0 20.9 12.3 51 6.2 E 15 24 8 13 1008.3 1006.9 0.0
19/11:00am 22.6 20.5 11.0 48 6.5 ENE 13 20 7 11 1008.6 1007.2 0.0
19/10:30am 22.4 19.2 11.2 49 6.3 ENE 19 26 10 14 1009.1 1007.7 0.0
19/10:00am 20.3 16.2 10.1 52 5.6 ENE 22 33 12 18 1009.0 1007.6 0.0
19/09:30am 17.7 13.1 8.3 54 4.9 ENE 22 35 12 19 1009.2 1007.8 0.0
19/09:00am 17.0 12.4 8.2 56 4.6 ENE 22 30 12 16 1009.3 1007.9 0.0
19/08:30am 16.5 11.8 7.7 56 4.5 ENE 22 35 12 19 1009.4 1008.0 0.0
19/08:00am 15.5 10.3 7.3 58 4.1 E 24 32 13 17 1009.7 1008.3 0.0
19/07:30am 14.9 9.6 7.0 59 4.0 E 24 33 13 18 1010.1 1008.7 0.0
19/07:00am 14.8 9.6 7.1 60 3.9 E 24 33 13 18 1010.0 1008.6 0.0
19/06:30am 14.2 8.6 7.3 63 3.5 E 26 39 14 21 1009.8 1008.4 0.0
19/06:00am 14.1 8.3 7.9 66 3.1 E 28 35 15 19 1009.8 1008.4 0.0
19/05:30am 14.1 8.8 8.3 68 3.0 E 26 35 14 19 1009.8 1008.4 0.0
19/05:00am 14.0 9.2 8.8 71 2.7 E 24 30 13 16 1010.0 1008.6 0.0
19/04:30am 14.4 9.2 8.8 69 2.9 E 26 33 14 18 1010.0 1008.6 0.0
19/04:00am 14.4 9.8 9.8 74 2.4 ESE 24 32 13 17 1010.0 1008.6 0.0
19/03:30am 14.3 9.9 10.5 78 2.0 ESE 24 33 13 18 1010.5 1009.1 0.0
19/03:00am 14.3 10.1 11.1 81 1.7 ESE 24 32 13 17 1010.8 1009.4 0.0
19/02:30am 14.3 9.9 11.8 85 1.4 ESE 26 35 14 19 1011.0 1009.6 0.0
19/02:00am 14.3 10.5 12.5 89 1.0 ESE 24 33 13 18 1011.4 1010.0 0.0
19/01:30am 14.2 10.5 12.8 91 0.8 SE 24 33 13 18 1011.7 1010.3 0.0
19/01:00am 14.0 11.0 12.7 92 0.7 ESE 20 32 11 17 1012.1 1010.7 0.0
19/12:30am 13.9 10.5 12.5 91 0.8 SE 22 35 12 19 1012.5 1011.1 0.0
19/12:00am 13.9 10.1 12.3 90 0.9 SE 24 35 13 19 1012.7 1011.4 0.0
 
Date/Time
CDT
Temp
°C
App
Temp
°C
Dew
Point
°C
Rel
Hum
%
Delta-T
°C
Wind Press
QNH
hPa
Press
MSL
hPa
Rain since
9am
mm
Dir  Spd
km/h
Gust
km/h
Spd
kts
Gust
kts
18/11:30pm 13.9 10.0 12.1 89 1.0 SE 24 37 13 20 1013.0 1011.7 0.0
18/11:00pm 13.9 9.9 11.8 87 1.1 SE 24 37 13 20 1013.1 1011.8 0.0
18/10:30pm 14.0 10.0 11.7 86 1.3 SE 24 35 13 19 1013.5 1012.1 0.0
18/10:00pm 14.1 10.0 11.4 84 1.5 SE 24 37 13 20 1013.4 1012.0 0.0
18/09:30pm 14.3 10.2 11.3 82 1.6 SE 24 39 13 21 1013.5 1012.1 0.0
18/09:00pm 14.5 9.9 10.9 79 1.9 SE 26 41 14 22 1013.5 1012.1 0.0
18/08:30pm 14.7 11.2 10.9 78 2.0 SE 20 33 11 18 1013.8 1012.4 0.0
18/08:00pm 14.9 11.4 10.9 77 2.2 ESE 20 30 11 16 1013.6 1012.2 0.0
18/07:30pm 15.6 11.4 11.2 75 2.4 ESE 24 39 13 21 1013.1 1011.8 0.0
18/07:13pm 15.7 10.7 11.1 74 2.5 ESE 28 46 15 25 1013.0 1011.7 0.0
18/07:00pm 16.3 12.5 11.2 72 2.8 ESE 22 37 12 20 1012.9 1011.6 0.0
18/06:30pm 16.6 12.4 11.1 70 3.0 SE 24 39 13 21 1012.9 1011.6 0.0
18/06:00pm 17.5 13.7 11.3 67 3.4 ESE 22 39 12 21 1012.9 1011.6 0.0
18/05:30pm 17.4 13.2 11.0 66 3.5 SE 24 39 13 21 1013.2 1011.9 0.0
18/05:00pm 18.3 13.6 10.7 61 4.2 ESE 26 39 14 21 1013.6 1012.2 0.0
18/04:30pm 19.1 15.1 10.4 57 4.8 SE 22 35 12 19 1013.7 1012.3 0.0
18/04:00pm 19.0 15.0 10.6 58 4.6 SE 22 39 12 21 1014.1 1012.7 0.0
18/03:30pm 19.4 16.0 11.2 59 4.6 SE 20 33 11 18 1013.9 1012.5 0.0
18/03:00pm 18.5 13.8 10.6 60 4.3 ESE 26 41 14 22 1014.0 1012.6 0.0
18/02:34pm 18.2 13.2 10.8 62 4.1 ESE 28 46 15 25 1014.0 1012.6 0.0
18/02:30pm 19.1 14.9 11.2 60 4.4 ESE 24 41 13 22 1014.2 1012.8 0.0
18/02:00pm 19.3 15.4 12.1 63 4.1 SE 24 44 13 24 1014.3 1012.9 0.0
18/01:30pm 18.9 14.5 11.7 63 4.0 ESE 26 41 14 22 1014.7 1013.3 0.0
18/01:00pm 18.0 12.9 12.0 68 3.4 ESE 30 43 16 23 1014.8 1013.4 0.0
18/12:30pm 17.5 12.9 12.2 71 3.0 ESE 28 48 15 26 1014.8 1013.4 0.0
18/12:16pm 17.1 12.2 11.4 69 3.1 ESE 28 46 15 25 1015.0 1013.6 0.0
18/12:00pm 17.6 12.9 11.9 69 3.2 SE 28 44 15 24 1015.0 1013.6 0.0
18/11:30am 17.1 13.0 11.6 70 3.0 ESE 24 35 13 19 1015.1 1013.8 0.0
18/11:00am 16.9 12.7 11.2 69 3.1 ESE 24 41 13 22 1015.6 1014.3 0.0
18/10:30am 16.1 10.4 11.1 72 2.7 ESE 32 44 17 24 1015.3 1014.0 0.0
18/10:08am 15.8 10.4 10.8 72 2.7 ESE 30 48 16 26 1015.2 1013.9 0.0
18/10:00am 15.7 11.6 11.5 76 2.3 ESE 24 43 13 23 1015.4 1014.1 0.0
18/09:30am 15.1 10.9 11.1 77 2.2 ESE 24 39 13 21 1015.7 1014.4 0.0
18/09:00am 14.6 10.5 11.4 81 1.7 ESE 24 43 13 23 1015.0 1013.6 0.0
18/08:35am 14.1 9.1 11.1 82 1.6 ESE 28 48 15 26 1014.8 1013.4 0.0
18/08:30am 14.1 9.7 11.6 85 1.4 ESE 26 39 14 21 1014.8 1013.4 0.0
18/08:00am 13.9 9.4 11.4 85 1.4 SE 26 43 14 23 1014.8 1013.4 0.0
18/07:30am 13.0 9.5 12.1 94 0.5 SE 22 41 12 22 1014.7 1013.3 0.0
18/07:00am 13.6 10.8 13.1 97 0.3 SSE 20 33 11 18 1014.1 1012.7 0.0
18/06:30am 13.7 10.9 13.2 97 0.3 SE 20 35 11 19 1013.2 1011.9 0.0
18/06:00am 14.5 12.1 13.9 96 0.3 SE 19 33 10 18 1012.4 1011.0 0.0
18/05:30am 14.6 12.0 13.8 95 0.5 SE 20 28 11 15 1012.0 1010.6 0.0
18/05:00am 14.7 12.1 13.9 95 0.5 ESE 20 35 11 19 1011.4 1010.0 0.0
18/04:30am 15.1 12.8 14.1 94 0.6 SE 19 30 10 16 1010.7 1009.3 0.0
18/04:00am 15.2 12.8 14.4 95 0.5 ESE 20 33 11 18 1010.5 1009.1 0.0
18/03:30am 15.2 11.1 13.9 92 0.7 SE 28 43 15 23 1010.3 1009.0 0.0
18/03:02am 15.2 10.7 13.9 92 0.7 SE 30 48 16 26 1010.1 1008.7 0.0
18/03:00am 15.3 10.9 14.0 92 0.7 SE 30 43 16 23 1010.2 1008.8 0.0
18/02:30am 15.5 12.2 14.0 91 0.9 SE 24 37 13 20 1010.6 1009.2 0.0
18/02:00am 15.6 12.0 14.3 92 0.8 SE 26 41 14 22 1010.9 1009.5 0.0
18/01:30am 15.7 12.2 14.4 92 0.8 SE 26 43 14 23 1010.8 1009.4 0.0
18/01:00am 15.5 11.9 14.2 92 0.7 SE 26 39 14 21 1010.7 1009.3 0.0
18/12:30am 15.7 12.1 14.2 91 0.9 SE 26 41 14 22 1011.0 1009.6 0.0
18/12:00am 15.8 11.8 14.2 90 0.9 SE 28 43 15 23 1011.0 1009.6 0.0
 
Date/Time
CDT
Temp
°C
App
Temp
°C
Dew
Point
°C
Rel
Hum
%
Delta-T
°C
Wind Press
QNH
hPa
Press
MSL
hPa
Rain since
9am
mm
Dir  Spd
km/h
Gust
km/h
Spd
kts
Gust
kts
17/11:30pm 15.8 11.5 14.3 91 0.9 SE 30 43 16 23 1011.0 1009.6 0.0
17/11:00pm 16.2 12.2 14.0 87 1.3 SE 28 50 15 27 1011.2 1009.8 0.0
17/10:35pm 16.1 12.2 14.3 89 1.0 SE 28 46 15 25 1011.3 1009.9 0.0
17/10:30pm 16.1 11.8 14.5 90 0.9 SE 30 46 16 25 1011.4 1010.0 0.0
17/10:08pm 16.4 12.4 14.2 87 1.3 SE 28 46 15 25 1011.2 1009.8 0.0
17/10:00pm 16.5 13.1 14.7 89 1.1 SE 26 41 14 22 1011.3 1009.9 0.0
17/09:30pm 16.9 12.6 14.4 85 1.5 SSE 30 50 16 27 1011.4 1010.0 0.0
17/09:00pm 17.5 13.1 14.0 80 2.0 SSE 30 54 16 29 1011.1 1009.7 0.0
17/08:56pm 17.7 13.7 14.0 79 2.1 SSE 28 46 15 25 1011.0 1009.6 0.0
17/08:30pm 18.5 15.0 15.4 82 1.9 SSE 28 43 15 23 1010.6 1009.2 0.0
17/08:00pm 20.9 16.6 13.1 61 4.5 SSE 28 56 15 30 1009.7 1008.3 0.0
17/07:30pm 24.4 20.3 13.9 52 6.3 S 28 50 15 27 1009.0 1007.6 0.0
17/07:26pm 24.8 20.6 13.4 49 6.8 S 28 46 15 25 1008.8 1007.4 0.0
17/07:20pm 26.5 23.6 13.9 45 7.6 S 22 39 12 21 1008.7 1007.3 0.0
17/07:00pm 31.7 26.6 1.0 14 15.3 SW 17 28 9 15 1007.9 1006.5 0.0
17/06:30pm 31.6 26.4 3.6 17 14.6 SW 20 35 11 19 1007.6 1006.1 0.0
17/06:00pm 32.6 27.2 4.4 17 15.0 WSW 22 32 12 17 1007.3 1005.9 0.0
17/05:30pm 33.4 29.2 5.9 18 15.1 WSW 17 26 9 14 1007.2 1005.8 0.0
17/05:00pm 33.8 30.1 6.2 18 15.2 SW 15 24 8 13 1007.2 1005.8 0.0
17/04:30pm 34.8 29.8 4.4 15 16.4 WSW 20 33 11 18 1007.0 1005.6 0.0
17/04:00pm 35.8 30.9 2.0 12 17.6 W 17 30 9 16 1007.0 1005.6 0.0
17/03:30pm 35.7 30.0 0.7 11 17.9 W 20 35 11 19 1007.0 1005.6 0.0
17/03:00pm 35.8 30.1 0.8 11 17.9 W 20 32 11 17 1007.2 1005.8 0.0
17/02:30pm 35.7 29.3 0.7 11 17.9 WNW 24 41 13 22 1007.3 1005.9 0.0
17/02:00pm 35.7 29.5 -0.6 10 18.1 WNW 22 39 12 21 1007.7 1006.2 0.0
17/01:30pm 35.6 29.7 1.8 12 17.6 NW 22 39 12 21 1008.0 1006.6 0.0
17/01:00pm 35.0 28.3 -1.1 10 17.8 NW 24 39 13 21 1008.3 1006.9 0.0
17/12:30pm 35.0 28.9 2.5 13 17.0 NW 24 39 13 21 1008.5 1007.1 0.0
17/12:00pm 34.4 28.0 0.9 12 17.0 NW 24 39 13 21 1008.6 1007.2 0.0
17/11:30am 33.9 28.7 3.7 15 16.0 NW 20 43 11 23 1008.8 1007.4 0.0
17/11:00am 33.4 29.3 4.2 16 15.5 NW 15 24 8 13 1008.8 1007.4 0.0
17/10:30am 32.6 28.2 2.6 15 15.5 NW 15 28 8 15 1008.7 1007.3 0.0
17/10:00am 31.4 28.7 9.0 25 12.7 NNW 13 20 7 11 1008.8 1007.4 0.0
17/09:30am 29.9 27.2 8.9 27 11.9 NNW 13 24 7 13 1008.7 1007.3 0.0
17/09:00am 27.3 24.4 6.7 27 11.1 N 11 19 6 10 1008.8 1007.4 0.0
17/08:30am 29.2 26.3 6.6 24 12.2 N 11 19 6 10 1008.8 1007.4 0.0
17/08:00am 28.5 25.2 6.6 25 11.8 N 13 22 7 12 1008.8 1007.4 0.0
17/07:30am 26.0 23.2 7.1 30 10.2 N 11 19 6 10 1008.6 1007.2 0.0
17/07:00am 23.4 20.4 6.2 33 8.9 NNE 11 17 6 9 1008.6 1007.2 0.0
17/06:30am 23.0 19.7 6.3 34 8.7 NNE 13 17 7 9 1008.4 1007.0 0.0
17/06:00am 22.7 20.3 6.9 36 8.3 NNE 9 13 5 7 1008.2 1006.8 0.0
17/05:30am 22.8 19.5 6.6 35 8.5 NNE 13 15 7 8 1008.3 1006.9 0.0
17/05:00am 23.4 20.5 6.7 34 8.8 NNE 11 17 6 9 1008.3 1006.9 0.0
17/04:30am 22.9 19.6 6.6 35 8.5 NNE 13 17 7 9 1008.2 1006.8 0.0
17/04:00am 22.9 19.4 7.1 36 8.3 NNE 15 20 8 11 1008.1 1006.7 0.0
17/03:30am 23.6 20.7 6.4 33 9.0 NNE 11 15 6 8 1008.3 1006.9 0.0
17/03:00am 23.5 20.6 6.3 33 9.0 NNE 11 13 6 7 1008.7 1007.3 0.0
17/02:30am 23.2 20.4 6.9 35 8.6 NNE 11 17 6 9 1009.0 1007.6 0.0
17/02:00am 23.0 20.3 7.5 37 8.2 NNE 11 15 6 8 1009.1 1007.7 0.0
17/01:30am 23.3 20.3 7.8 37 8.3 NE 13 17 7 9 1009.4 1008.0 0.0
17/01:00am 22.8 19.6 8.5 40 7.7 NE 15 20 8 11 1009.6 1008.2 0.0
17/12:30am 23.1 19.4 8.0 38 8.1 ENE 17 24 9 13 1009.9 1008.5 0.0
17/12:00am 22.8 19.3 8.9 41 7.6 NE 17 20 9 11 1010.0 1008.6 0.0
 
Date/Time
CDT
Temp
°C
App
Temp
°C
Dew
Point
°C
Rel
Hum
%
Delta-T
°C
Wind Press
QNH
hPa
Press
MSL
hPa
Rain since
9am
mm
Dir  Spd
km/h
Gust
km/h
Spd
kts
Gust
kts
16/11:30pm 22.8 19.1 8.1 39 7.9 NE 17 22 9 12 1010.2 1008.8 0.0
16/11:00pm 22.6 19.9 7.2 37 8.1 NE 11 15 6 8 1010.5 1009.1 0.0
16/10:30pm 25.9 23.8 6.0 28 10.5 E 6 7 3 4 1010.5 1009.1 0.0
16/10:00pm 24.3 21.9 7.0 33 9.2 E 9 9 5 5 1010.6 1009.2 0.0
16/09:30pm 26.1 23.3 5.1 26 10.9 NE 9 15 5 8 1010.2 1008.8 0.0
16/09:00pm 26.6 23.4 5.0 25 11.2 NE 11 15 6 8 1010.2 1008.8 0.0
16/08:30pm 27.0 24.1 4.7 24 11.5 NE 9 11 5 6 1010.2 1008.8 0.0
16/08:00pm 27.9 25.9 6.1 25 11.6 NNE 6 7 3 4 1010.2 1008.8 0.0
16/07:30pm 30.2 28.0 5.5 21 13.2 W 6 9 3 5 1010.2 1008.8 0.0

Latest Capital City Observations: Canberra | Sydney | Melbourne | Brisbane | Adelaide | Perth | Hobart | Darwin

Other Formats:

Comma delimited format used in spreadsheet applications
http://www.bom.gov.au/fwo/IDS60901/IDS60901.94683.axf

JavaScript Object Notation format (JSON) in row-major order
http://www.bom.gov.au/fwo/IDS60901/IDS60901.94683.json